Time,TemperatureF,DewpointF,PressureIn,WindDirection,WindDirectionDegrees,WindSpeedMPH,WindSpeedGustMPH,Humidity,HourlyPrecipIn,Conditions,Clouds,dailyrainin,SolarRadiationWatts/m^2,SoftwareType,DateUTC
2013-03-09 00:00:00,39.7,29.7,30.08,NNW,346,20.0,23.0,67,0.00,,---,0.68,0.00,VWS V14.01,2013-03-09 05:00:00,
2013-03-09 00:01:00,39.8,29.4,30.08,NNE,19,25.0,25.0,66,0.00,,---,0.00,0.00,VWS V14.01,2013-03-09 05:01:00,
2013-03-09 00:06:00,39.8,29.4,30.08,North,5,15.0,25.0,66,0.00,,---,0.00,0.00,VWS V14.01,2013-03-09 05:06:00,
2013-03-09 00:11:00,39.9,29.1,30.08,NNE,23,9.0,25.0,65,0.00,,---,0.00,0.00,VWS V14.01,2013-03-09 05:11:00,
2013-03-09 00:15:00,39.8,29.4,30.08,NNW,342,20.0,25.0,66,0.00,,,0.00,0.00,VWS V14.01,2013-03-09 05:15:00,
2013-03-09 00:16:00,39.8,29.4,30.08,North,5,12.0,20.0,66,0.00,,---,0.00,0.00,VWS V14.01,2013-03-09 05:16:00,
2013-03-09 00:21:00,39.6,29.6,30.08,ENE,63,11.0,25.0,67,0.00,,---,0.00,0.00,VWS V14.01,2013-03-09 05:21:00,
2013-03-09 00:26:00,39.6,29.6,30.08,NNE,17,11.0,25.0,67,0.00,,---,0.00,0.00,VWS V14.01,2013-03-09 05:26:00,
2013-03-09 00:30:00,39.4,29.7,30.08,NNW,329,13.0,25.0,68,0.00,,,0.00,0.00,VWS V14.01,2013-03-09 05:30:00,
2013-03-09 00:31:00,39.4,29.7,30.08,NNE,22,8.0,13.0,68,0.00,,---,0.00,0.00,VWS V14.01,2013-03-09 05:31:00,
2013-03-09 00:36:00,39.4,29.7,30.08,NNE,19,6.0,24.0,68,0.00,,---,0.00,0.00,VWS V14.01,2013-03-09 05:36:00,
2013-03-09 00:41:00,39.3,30.0,30.09,NNE,22,14.0,24.0,69,0.00,,---,0.00,0.00,VWS V14.01,2013-03-09 05:41:00,
2013-03-09 00:45:00,39.4,30.1,30.09,NNW,338,11.0,24.0,69,0.00,,,0.00,0.00,VWS V14.01,2013-03-09 05:45:00,
2013-03-09 00:46:00,39.4,30.1,30.09,NNE,22,10.0,11.0,69,0.00,,---,0.00,0.00,VWS V14.01,2013-03-09 05:46:00,
2013-03-09 00:51:00,39.3,30.0,30.10,NE,48,15.0,24.0,69,0.00,,---,0.00,0.00,VWS V14.01,2013-03-09 05:51:00,
2013-03-09 00:56:00,39.2,29.9,30.10,North,5,10.0,24.0,69,0.00,,---,0.00,0.00,VWS V14.01,2013-03-09 05:56:00,
2013-03-09 01:00:00,39.1,29.8,30.09,NNE,19,16.0,24.0,69,0.00,,,0.00,0.00,VWS V14.01,2013-03-09 06:00:00,
2013-03-09 01:01:00,39.1,29.8,30.09,North,11,19.0,19.0,69,0.00,,---,0.00,0.00,VWS V14.01,2013-03-09 06:01:00,
2013-03-09 01:06:00,39.1,29.5,30.09,NNW,327,13.0,23.0,68,0.00,,---,0.00,0.00,VWS V14.01,2013-03-09 06:06:00,
2013-03-09 01:11:00,39.1,29.5,30.09,NNW,339,11.0,23.0,68,0.00,,---,0.00,0.00,VWS V14.01,2013-03-09 06:11:00,
2013-03-09 01:15:00,39.2,29.5,30.09,NNW,329,14.0,27.0,68,0.00,,,0.00,0.00,VWS V14.01,2013-03-09 06:15:00,
2013-03-09 01:16:00,39.2,29.5,30.09,NE,35,8.0,14.0,68,0.00,,---,0.00,0.00,VWS V14.01,2013-03-09 06:16:00,
2013-03-09 01:21:00,39.2,29.5,30.09,North,5,13.0,24.0,68,0.00,,---,0.00,0.00,VWS V14.01,2013-03-09 06:21:00,
2013-03-09 01:26:00,39.1,29.8,30.09,North,355,12.0,24.0,69,0.00,,---,0.00,0.00,VWS V14.01,2013-03-09 06:26:00,
2013-03-09 01:30:00,38.9,29.6,30.10,NNW,335,8.0,24.0,69,0.00,,,0.00,0.00,VWS V14.01,2013-03-09 06:30:00,
2013-03-09 01:31:00,38.9,30.0,30.10,North,350,14.0,15.0,70,0.00,,---,0.00,0.00,VWS V14.01,2013-03-09 06:31:00,
2013-03-09 01:36:00,38.8,29.9,30.10,North,5,12.0,16.0,70,0.00,,---,0.00,0.00,VWS V14.01,2013-03-09 06:36:00,
2013-03-09 01:41:00,38.6,30.0,30.10,North,360,16.0,18.0,71,0.00,,---,0.00,0.00,VWS V14.01,2013-03-09 06:41:00,
2013-03-09 01:46:00,38.4,30.2,30.10,NNW,348,16.0,16.0,72,0.00,,---,0.00,0.00,VWS V14.01,2013-03-09 06:46:00,
2013-03-09 01:51:00,38.3,30.4,30.10,NNE,26,14.0,19.0,73,0.00,,---,0.00,0.00,VWS V14.01,2013-03-09 06:51:00,
2013-03-09 01:56:00,38.3,30.4,30.10,NNW,348,15.0,19.0,73,0.00,,---,0.00,0.00,VWS V14.01,2013-03-09 06:56:00,
2013-03-09 02:00:00,38.3,30.1,30.09,North,360,20.0,20.0,72,0.00,,,0.00,0.00,VWS V14.01,2013-03-09 07:00:00,
2013-03-09 02:01:00,38.3,30.1,30.09,NNE,23,12.0,20.0,72,0.00,,---,0.00,0.00,VWS V14.01,2013-03-09 07:01:00,
2013-03-09 02:06:00,38.4,30.2,30.09,NNW,335,17.0,20.0,72,0.00,,---,0.00,0.00,VWS V14.01,2013-03-09 07:06:00,
2013-03-09 02:11:00,38.3,30.1,30.09,NNE,16,13.0,21.0,72,0.00,,---,0.00,0.00,VWS V14.01,2013-03-09 07:11:00,
2013-03-09 02:15:00,38.3,29.7,30.09,North,360,12.0,21.0,71,0.00,,,0.00,0.00,VWS V14.01,2013-03-09 07:15:00,
2013-03-09 02:16:00,38.3,29.7,30.09,North,5,15.0,15.0,71,0.00,,---,0.00,0.00,VWS V14.01,2013-03-09 07:16:00,
2013-03-09 02:21:00,38.2,29.6,30.09,NNW,327,11.0,21.0,71,0.00,,---,0.00,0.00,VWS V14.01,2013-03-09 07:21:00,
2013-03-09 02:26:00,38.2,30.0,30.09,NNW,338,6.0,21.0,72,0.00,,---,0.00,0.00,VWS V14.01,2013-03-09 07:26:00,
2013-03-09 02:30:00,38.1,29.9,30.09,NNE,14,17.0,23.0,72,0.00,,,0.00,0.00,VWS V14.01,2013-03-09 07:30:00,
2013-03-09 02:31:00,38.1,29.9,30.09,North,360,13.0,18.0,72,0.00,,---,0.00,0.00,VWS V14.01,2013-03-09 07:31:00,
2013-03-09 02:36:00,38.0,29.8,30.09,NNW,345,14.0,19.0,72,0.00,,---,0.00,0.00,VWS V14.01,2013-03-09 07:36:00,
2013-03-09 02:41:00,38.0,29.5,30.09,North,355,16.0,20.0,71,0.00,,---,0.00,0.00,VWS V14.01,2013-03-09 07:41:00,
2013-03-09 02:45:00,38.0,29.8,30.09,NNW,334,17.0,21.0,72,0.00,,,0.00,0.00,VWS V14.01,2013-03-09 07:45:00,
2013-03-09 02:46:00,38.0,29.8,30.09,NNE,15,7.0,18.0,72,0.00,,---,0.00,0.00,VWS V14.01,2013-03-09 07:46:00,
2013-03-09 02:51:00,38.1,29.5,30.09,NNW,331,19.0,31.0,71,0.00,,---,0.00,0.00,VWS V14.01,2013-03-09 07:51:00,
2013-03-09 02:56:00,37.9,29.7,30.09,North,360,18.0,31.0,72,0.00,,---,0.00,0.00,VWS V14.01,2013-03-09 07:56:00,
2013-03-09 03:01:00,37.8,29.9,30.09,NNW,334,15.0,19.0,73,0.00,,---,0.00,0.00,VWS V14.01,2013-03-09 08:01:00,
2013-03-09 03:06:00,37.7,29.8,30.09,North,350,14.0,20.0,73,0.00,,---,0.00,0.00,VWS V14.01,2013-03-09 08:06:00,
2013-03-09 03:11:00,37.7,29.5,30.10,North,360,10.0,22.0,72,0.00,,---,0.00,0.00,VWS V14.01,2013-03-09 08:11:00,
2013-03-09 03:15:00,37.6,29.7,30.10,NNE,22,13.0,22.0,73,0.00,,,0.00,0.00,VWS V14.01,2013-03-09 08:15:00,
2013-03-09 03:16:00,37.6,29.7,30.10,NNW,338,13.0,20.0,73,0.00,,---,0.00,0.00,VWS V14.01,2013-03-09 08:16:00,
2013-03-09 03:21:00,37.6,29.7,30.10,North,5,6.0,21.0,73,0.00,,---,0.00,0.00,VWS V14.01,2013-03-09 08:21:00,
2013-03-09 03:26:00,37.4,29.5,30.10,NNW,329,12.0,21.0,73,0.00,,---,0.00,0.00,VWS V14.01,2013-03-09 08:26:00,
2013-03-09 03:30:00,37.4,29.5,30.10,North,350,8.0,21.0,73,0.00,,,0.00,0.00,VWS V14.01,2013-03-09 08:30:00,
2013-03-09 03:31:00,37.4,29.5,30.10,North,10,9.0,9.0,73,0.00,,---,0.00,0.00,VWS V14.01,2013-03-09 08:31:00,
2013-03-09 03:36:00,37.2,29.7,30.10,NNW,346,13.0,17.0,74,0.00,,---,0.00,0.00,VWS V14.01,2013-03-09 08:36:00,
2013-03-09 03:41:00,37.2,29.7,30.10,NNW,336,11.0,22.0,74,0.00,,---,0.00,0.00,VWS V14.01,2013-03-09 08:41:00,
2013-03-09 03:46:00,37.1,29.6,30.11,NNE,28,13.0,14.0,74,0.00,,---,0.00,0.00,VWS V14.01,2013-03-09 08:46:00,
2013-03-09 03:51:00,37.1,29.6,30.10,NNW,338,7.0,21.0,74,0.00,,---,0.00,0.00,VWS V14.01,2013-03-09 08:51:00,
2013-03-09 03:56:00,37.1,29.6,30.11,NNE,24,11.0,22.0,74,0.00,,---,0.00,0.00,VWS V14.01,2013-03-09 08:56:00,
2013-03-09 04:00:00,37.1,29.6,30.11,North,349,8.0,22.0,74,0.00,,,0.00,0.00,VWS V14.01,2013-03-09 09:00:00,
2013-03-09 04:01:00,37.0,29.5,30.11,NNW,341,5.0,11.0,74,0.00,,---,0.00,0.00,VWS V14.01,2013-03-09 09:01:00,
2013-03-09 04:06:00,36.9,29.4,30.11,NNE,13,11.0,18.0,74,0.00,,---,0.00,0.00,VWS V14.01,2013-03-09 09:06:00,
2013-03-09 04:12:00,36.9,29.7,30.11,NNE,15,18.0,18.0,75,0.00,,---,0.00,0.00,VWS V14.01,2013-03-09 09:12:00,
2013-03-09 04:15:00,36.8,29.6,30.11,NNE,22,14.0,21.0,75,0.00,,,0.00,0.00,VWS V14.01,2013-03-09 09:15:00,
2013-03-09 04:17:00,36.8,29.6,30.11,North,5,14.0,16.0,75,0.00,,---,0.00,0.00,VWS V14.01,2013-03-09 09:17:00,
2013-03-09 04:22:00,36.8,29.6,30.11,NNW,342,14.0,20.0,75,0.00,,---,0.00,0.00,VWS V14.01,2013-03-09 09:22:00,
2013-03-09 04:27:00,36.6,29.4,30.11,NNE,17,9.0,20.0,75,0.00,,---,0.00,0.00,VWS V14.01,2013-03-09 09:27:00,
2013-03-09 04:30:00,36.7,29.5,30.11,NNE,15,17.0,23.0,75,0.00,,,0.00,0.00,VWS V14.01,2013-03-09 09:30:00,
2013-03-09 04:32:00,36.7,29.5,30.12,NNW,342,13.0,17.0,75,0.00,,---,0.00,0.00,VWS V14.01,2013-03-09 09:32:00,
2013-03-09 04:37:00,36.6,29.8,30.12,NNE,12,7.0,19.0,76,0.00,,---,0.00,0.00,VWS V14.01,2013-03-09 09:37:00,
2013-03-09 04:42:00,36.5,29.7,30.12,North,9,13.0,20.0,76,0.00,,---,0.00,0.00,VWS V14.01,2013-03-09 09:42:00,
2013-03-09 04:45:00,36.5,29.7,30.12,NNW,347,17.0,22.0,76,0.00,,,0.00,0.00,VWS V14.01,2013-03-09 09:45:00,
2013-03-09 04:47:00,36.4,29.6,30.12,NNW,329,18.0,18.0,76,0.00,,---,0.00,0.00,VWS V14.01,2013-03-09 09:47:00,
2013-03-09 04:52:00,36.4,29.6,30.12,North,11,20.0,20.0,76,0.00,,---,0.00,0.00,VWS V14.01,2013-03-09 09:52:00,
2013-03-09 04:57:00,36.4,29.6,30.13,North,5,13.0,20.0,76,0.00,,---,0.00,0.00,VWS V14.01,2013-03-09 09:57:00,
2013-03-09 05:02:00,36.3,29.5,30.13,NW,325,12.0,18.0,76,0.00,,---,0.00,0.00,VWS V14.01,2013-03-09 10:02:00,
2013-03-09 05:07:00,36.2,29.7,30.13,NNE,27,13.0,19.0,77,0.00,,---,0.00,0.00,VWS V14.01,2013-03-09 10:07:00,
2013-03-09 05:12:00,36.2,29.7,30.13,North,5,7.0,19.0,77,0.00,,---,0.00,0.00,VWS V14.01,2013-03-09 10:12:00,
2013-03-09 05:17:00,36.2,29.7,30.13,NNE,29,9.0,14.0,77,0.00,,---,0.00,0.00,VWS V14.01,2013-03-09 10:17:00,
2013-03-09 05:22:00,36.0,29.5,30.14,NNW,337,11.0,17.0,77,0.00,,---,0.00,0.00,VWS V14.01,2013-03-09 10:22:00,
2013-03-09 05:27:00,36.1,29.6,30.13,North,5,12.0,20.0,77,0.00,,---,0.00,0.00,VWS V14.01,2013-03-09 10:27:00,
2013-03-09 05:32:00,36.0,29.8,30.14,North,5,16.0,16.0,78,0.00,,---,0.00,0.00,VWS V14.01,2013-03-09 10:32:00,
2013-03-09 05:37:00,35.9,29.7,30.14,NNE,32,11.0,19.0,78,0.00,,---,0.00,0.00,VWS V14.01,2013-03-09 10:37:00,
2013-03-09 05:42:00,35.9,29.7,30.14,NNE,25,14.0,24.0,78,0.00,,---,0.00,0.00,VWS V14.01,2013-03-09 10:42:00,
2013-03-09 05:45:00,35.9,29.7,30.14,North,5,16.0,24.0,78,0.00,,,0.00,0.00,VWS V14.01,2013-03-09 10:45:00,
2013-03-09 05:47:00,35.8,29.6,30.14,North,355,9.0,16.0,78,0.00,,---,0.00,0.00,VWS V14.01,2013-03-09 10:47:00,
2013-03-09 05:52:00,35.8,29.6,30.15,NNE,16,11.0,21.0,78,0.00,,---,0.00,0.00,VWS V14.01,2013-03-09 10:52:00,
2013-03-09 05:57:00,35.8,29.6,30.15,North,360,3.0,21.0,78,0.00,,---,0.00,0.00,VWS V14.01,2013-03-09 10:57:00,
2013-03-09 06:00:00,35.7,29.8,30.16,NW,321,10.0,21.0,79,0.00,,,0.00,0.00,VWS V14.01,2013-03-09 11:00:00,
2013-03-09 06:02:00,35.7,29.5,30.16,NE,42,11.0,11.0,78,0.00,,---,0.00,0.00,VWS V14.01,2013-03-09 11:02:00,
2013-03-09 06:07:00,35.7,29.8,30.16,North,360,14.0,18.0,79,0.00,,---,0.00,5.00,VWS V14.01,2013-03-09 11:07:00,
2013-03-09 06:12:00,35.6,29.7,30.16,NNE,13,9.0,18.0,79,0.00,,---,0.00,9.00,VWS V14.01,2013-03-09 11:12:00,
2013-03-09 06:15:00,35.6,29.7,30.16,North,355,8.0,19.0,79,0.00,,,0.00,14.00,VWS V14.01,2013-03-09 11:15:00,
2013-03-09 06:17:00,35.6,29.7,30.16,NNW,347,15.0,16.0,79,0.00,,---,0.00,16.00,VWS V14.01,2013-03-09 11:17:00,
2013-03-09 06:22:00,35.6,29.7,30.16,North,350,11.0,22.0,79,0.00,,---,0.00,19.00,VWS V14.01,2013-03-09 11:22:00,
2013-03-09 06:27:00,35.6,29.7,30.16,NNW,336,22.0,22.0,79,0.00,,---,0.00,23.00,VWS V14.01,2013-03-09 11:27:00,
2013-03-09 06:30:00,35.8,29.9,30.17,NNW,340,15.0,22.0,79,0.00,,,0.00,32.00,VWS V14.01,2013-03-09 11:30:00,
2013-03-09 06:32:00,35.7,29.8,30.17,NNE,28,12.0,19.0,79,0.00,,---,0.00,35.00,VWS V14.01,2013-03-09 11:32:00,
2013-03-09 06:37:00,35.7,29.8,30.17,NNW,346,4.0,19.0,79,0.00,,---,0.00,32.00,VWS V14.01,2013-03-09 11:37:00,
2013-03-09 06:42:00,35.8,29.9,30.17,NNW,337,17.0,19.0,79,0.00,,---,0.00,39.00,VWS V14.01,2013-03-09 11:42:00,
2013-03-09 06:47:00,35.9,30.0,30.17,North,10,17.0,19.0,79,0.00,,---,0.00,40.00,VWS V14.01,2013-03-09 11:47:00,
2013-03-09 06:52:00,35.9,30.0,30.17,North,5,16.0,23.0,79,0.00,,---,0.00,49.00,VWS V14.01,2013-03-09 11:52:00,
2013-03-09 06:57:00,36.0,30.1,30.18,NNW,339,15.0,23.0,79,0.00,,---,0.00,58.00,VWS V14.01,2013-03-09 11:57:00,
2013-03-09 07:00:00,36.1,29.9,30.17,North,9,11.0,23.0,78,0.00,,,0.00,56.00,VWS V14.01,2013-03-09 12:00:00,
2013-03-09 07:02:00,36.1,29.9,30.18,North,5,10.0,18.0,78,0.00,,---,0.00,56.00,VWS V14.01,2013-03-09 12:02:00,
2013-03-09 07:07:00,36.1,29.9,30.18,North,355,14.0,21.0,78,0.00,,---,0.00,65.00,VWS V14.01,2013-03-09 12:07:00,
2013-03-09 07:12:00,36.1,29.9,30.18,NNE,24,13.0,22.0,78,0.00,,---,0.00,100.00,VWS V14.01,2013-03-09 12:12:00,
2013-03-09 07:15:00,36.2,30.0,30.18,North,5,14.0,25.0,78,0.00,,,0.00,116.00,VWS V14.01,2013-03-09 12:15:00,
2013-03-09 07:17:00,36.2,30.0,30.18,North,5,8.0,18.0,78,0.00,,---,0.00,178.00,VWS V14.01,2013-03-09 12:17:00,
2013-03-09 07:22:00,36.4,30.2,30.18,NNE,13,14.0,24.0,78,0.00,,---,0.00,130.00,VWS V14.01,2013-03-09 12:22:00,
2013-03-09 07:27:00,36.6,30.1,30.18,NNW,331,10.0,27.0,77,0.00,,---,0.00,120.00,VWS V14.01,2013-03-09 12:27:00,
2013-03-09 07:30:00,36.6,30.1,30.18,NNE,15,19.0,27.0,77,0.00,,,0.00,109.00,VWS V14.01,2013-03-09 12:30:00,
2013-03-09 07:32:00,36.6,30.1,30.18,NNW,342,18.0,21.0,77,0.00,,---,0.00,109.00,VWS V14.01,2013-03-09 12:32:00,
2013-03-09 07:37:00,36.6,30.4,30.19,North,5,16.0,26.0,78,0.02,,---,0.02,114.00,VWS V14.01,2013-03-09 12:37:00,
2013-03-09 07:42:00,36.7,30.5,30.19,NNW,339,15.0,26.0,78,0.02,,---,0.02,406.00,VWS V14.01,2013-03-09 12:42:00,
2013-03-09 07:45:00,36.7,30.5,30.19,North,5,15.0,26.0,78,0.02,,,0.02,153.00,VWS V14.01,2013-03-09 12:45:00,
2013-03-09 07:47:00,36.7,30.2,30.19,North,360,21.0,26.0,77,0.02,,---,0.02,218.00,VWS V14.01,2013-03-09 12:47:00,
2013-03-09 07:52:00,36.6,30.4,30.20,NNE,17,21.0,30.0,78,0.02,,---,0.02,172.00,VWS V14.01,2013-03-09 12:52:00,
2013-03-09 07:57:00,36.6,30.4,30.20,North,11,16.0,30.0,78,0.02,,---,0.02,137.00,VWS V14.01,2013-03-09 12:57:00,
2013-03-09 08:00:00,36.5,30.0,30.20,North,5,16.0,31.0,77,0.02,,,0.02,130.00,VWS V14.01,2013-03-09 13:00:00,
2013-03-09 08:02:00,36.5,30.3,30.20,NNW,338,16.0,23.0,78,0.02,,---,0.02,134.00,VWS V14.01,2013-03-09 13:02:00,
2013-03-09 08:07:00,36.8,30.6,30.20,North,5,19.0,23.0,78,0.02,,---,0.02,364.00,VWS V14.01,2013-03-09 13:07:00,
2013-03-09 08:12:00,36.9,30.4,30.20,NNE,14,17.0,23.0,77,0.02,,---,0.02,216.00,VWS V14.01,2013-03-09 13:12:00,
2013-03-09 08:15:00,37.1,30.9,30.20,NNW,330,16.0,23.0,78,0.02,,,0.02,359.00,VWS V14.01,2013-03-09 13:15:00,
2013-03-09 08:17:00,37.2,31.0,30.20,North,360,16.0,17.0,78,0.02,,---,0.02,359.00,VWS V14.01,2013-03-09 13:17:00,
2013-03-09 08:22:00,37.2,30.7,30.20,NNE,32,18.0,22.0,77,0.02,,---,0.02,193.00,VWS V14.01,2013-03-09 13:22:00,
2013-03-09 08:27:00,37.0,30.5,30.20,NNE,24,25.0,26.0,77,0.02,,---,0.02,193.00,VWS V14.01,2013-03-09 13:27:00,
2013-03-09 08:30:00,36.9,30.7,30.20,NNE,26,17.0,30.0,78,0.02,,,0.02,188.00,VWS V14.01,2013-03-09 13:30:00,
2013-03-09 08:32:00,36.8,30.6,30.21,NE,45,18.0,23.0,78,0.02,,---,0.02,204.00,VWS V14.01,2013-03-09 13:32:00,
2013-03-09 08:37:00,36.8,30.6,30.21,NE,36,11.0,30.0,78,0.02,,---,0.02,153.00,VWS V14.01,2013-03-09 13:37:00,
2013-03-09 08:42:00,36.9,31.0,30.21,NNE,21,17.0,30.0,79,0.02,,---,0.02,315.00,VWS V14.01,2013-03-09 13:42:00,
2013-03-09 08:45:00,36.9,30.7,30.20,North,355,15.0,30.0,78,0.02,,,0.02,287.00,VWS V14.01,2013-03-09 13:45:00,
2013-03-09 08:47:00,37.0,30.8,30.21,North,360,10.0,19.0,78,0.00,,---,0.02,207.00,VWS V14.01,2013-03-09 13:47:00,
2013-03-09 08:52:00,37.3,31.1,30.21,North,355,12.0,25.0,78,0.00,,---,0.02,708.00,VWS V14.01,2013-03-09 13:52:00,
2013-03-09 08:57:00,37.2,31.0,30.20,North,355,10.0,25.0,78,0.00,,---,0.02,200.00,VWS V14.01,2013-03-09 13:57:00,
2013-03-09 09:00:00,37.3,30.8,30.20,NNE,31,10.0,25.0,77,0.00,,,0.02,301.00,VWS V14.01,2013-03-09 14:00:00,
2013-03-09 09:02:00,37.2,30.7,30.20,North,10,17.0,23.0,77,0.00,,---,0.02,292.00,VWS V14.01,2013-03-09 14:02:00,
2013-03-09 09:07:00,37.3,30.8,30.20,NNW,341,11.0,23.0,77,0.00,,---,0.02,316.00,VWS V14.01,2013-03-09 14:07:00,
2013-03-09 09:12:00,37.3,30.8,30.20,NNE,30,14.0,24.0,77,0.00,,---,0.02,341.00,VWS V14.01,2013-03-09 14:12:00,
2013-03-09 09:17:00,37.5,31.0,30.21,North,11,8.0,18.0,77,0.00,,---,0.02,524.00,VWS V14.01,2013-03-09 14:17:00,
2013-03-09 09:22:00,37.7,30.8,30.20,NNE,25,18.0,30.0,76,0.00,,---,0.02,679.00,VWS V14.01,2013-03-09 14:22:00,
2013-03-09 09:27:00,37.7,30.8,30.21,North,5,19.0,30.0,76,0.00,,---,0.02,733.00,VWS V14.01,2013-03-09 14:27:00,
2013-03-09 09:30:00,37.6,30.7,30.21,NNE,15,9.0,30.0,76,0.00,,,0.02,353.00,VWS V14.01,2013-03-09 14:30:00,
2013-03-09 09:32:00,37.5,31.0,30.21,NNE,16,17.0,23.0,77,0.00,,---,0.02,353.00,VWS V14.01,2013-03-09 14:32:00,
2013-03-09 09:37:00,37.2,30.7,30.21,North,360,13.0,26.0,77,0.00,,---,0.02,373.00,VWS V14.01,2013-03-09 14:37:00,
2013-03-09 09:42:00,37.4,31.2,30.21,North,5,19.0,26.0,78,0.00,,---,0.02,842.00,VWS V14.01,2013-03-09 14:42:00,
2013-03-09 09:45:00,37.7,31.1,30.21,North,360,10.0,26.0,77,0.00,,,0.02,687.00,VWS V14.01,2013-03-09 14:45:00,
2013-03-09 09:47:00,37.8,31.6,30.21,North,355,12.0,15.0,78,0.00,,---,0.02,687.00,VWS V14.01,2013-03-09 14:47:00,
2013-03-09 09:52:00,38.0,31.4,30.21,North,5,9.0,21.0,77,0.00,,---,0.02,719.00,VWS V14.01,2013-03-09 14:52:00,
2013-03-09 09:57:00,38.0,31.4,30.21,NE,45,13.0,23.0,77,0.00,,---,0.02,633.00,VWS V14.01,2013-03-09 14:57:00,
2013-03-09 10:00:00,38.1,31.5,30.21,NNE,33,4.0,23.0,77,0.00,,,0.02,501.00,VWS V14.01,2013-03-09 15:00:00,
2013-03-09 10:02:00,38.3,32.0,30.21,NNE,20,10.0,12.0,78,0.00,,---,0.02,480.00,VWS V14.01,2013-03-09 15:02:00,
2013-03-09 10:07:00,38.7,31.8,30.21,North,360,11.0,24.0,76,0.00,,---,0.02,766.00,VWS V14.01,2013-03-09 15:07:00,
2013-03-09 10:12:00,38.6,31.7,30.21,North,5,14.0,24.0,76,0.00,,---,0.02,770.00,VWS V14.01,2013-03-09 15:12:00,
2013-03-09 10:15:00,38.8,32.2,30.21,NNE,17,14.0,24.0,77,0.00,,,0.02,805.00,VWS V14.01,2013-03-09 15:15:00,
2013-03-09 10:17:00,38.8,31.9,30.21,NNE,15,13.0,18.0,76,0.00,,---,0.02,780.00,VWS V14.01,2013-03-09 15:17:00,
2013-03-09 10:22:00,38.6,31.4,30.21,NNE,12,13.0,25.0,75,0.00,,---,0.02,751.00,VWS V14.01,2013-03-09 15:22:00,
2013-03-09 10:27:00,38.5,31.6,30.21,NNE,27,15.0,25.0,76,0.00,,---,0.02,747.00,VWS V14.01,2013-03-09 15:27:00,
2013-03-09 10:30:00,38.6,31.7,30.22,NNE,14,16.0,25.0,76,0.00,,,0.02,756.00,VWS V14.01,2013-03-09 15:30:00,
2013-03-09 10:32:00,38.6,31.7,30.21,NNW,336,16.0,23.0,76,0.00,,---,0.02,754.00,VWS V14.01,2013-03-09 15:32:00,
2013-03-09 10:37:00,38.7,32.1,30.21,NNE,12,14.0,24.0,77,0.00,,---,0.02,791.00,VWS V14.01,2013-03-09 15:37:00,
2013-03-09 10:42:00,38.9,32.0,30.21,NNE,15,13.0,24.0,76,0.00,,---,0.02,780.00,VWS V14.01,2013-03-09 15:42:00,
2013-03-09 10:45:00,38.9,31.7,30.21,NNW,339,14.0,24.0,75,0.00,,,0.02,786.00,VWS V14.01,2013-03-09 15:45:00,
2013-03-09 10:47:00,39.0,32.1,30.22,NNE,27,8.0,18.0,76,0.00,,---,0.02,780.00,VWS V14.01,2013-03-09 15:47:00,
2013-03-09 10:52:00,39.3,32.0,30.21,North,11,16.0,20.0,75,0.00,,---,0.02,784.00,VWS V14.01,2013-03-09 15:52:00,
2013-03-09 10:57:00,39.3,32.0,30.22,North,11,9.0,20.0,75,0.00,,---,0.02,805.00,VWS V14.01,2013-03-09 15:57:00,
2013-03-09 11:00:00,39.3,32.0,30.22,North,5,14.0,20.0,75,0.00,,,0.02,789.00,VWS V14.01,2013-03-09 16:00:00,
2013-03-09 11:02:00,39.3,32.0,30.22,North,360,10.0,20.0,75,0.00,,---,0.02,779.00,VWS V14.01,2013-03-09 16:02:00,
2013-03-09 11:07:00,39.1,31.9,30.22,NE,34,9.0,23.0,75,0.00,,---,0.02,784.00,VWS V14.01,2013-03-09 16:07:00,
2013-03-09 11:12:00,39.2,31.6,30.22,NNE,24,12.0,23.0,74,0.00,,---,0.02,788.00,VWS V14.01,2013-03-09 16:12:00,
2013-03-09 11:15:00,39.3,31.7,30.22,NNE,23,18.0,23.0,74,0.00,,,0.02,791.00,VWS V14.01,2013-03-09 16:15:00,
2013-03-09 11:17:00,39.3,31.7,30.22,NNW,338,9.0,19.0,74,0.00,,---,0.02,789.00,VWS V14.01,2013-03-09 16:17:00,
2013-03-09 11:22:00,39.2,31.6,30.22,NNW,344,15.0,24.0,74,0.00,,---,0.02,798.00,VWS V14.01,2013-03-09 16:22:00,
2013-03-09 11:27:00,39.3,31.7,30.22,NNE,30,13.0,24.0,74,0.00,,---,0.02,795.00,VWS V14.01,2013-03-09 16:27:00,
2013-03-09 11:30:00,39.5,31.9,30.22,North,360,16.0,24.0,74,0.00,,,0.02,796.00,VWS V14.01,2013-03-09 16:30:00,
2013-03-09 11:32:00,39.3,31.4,30.22,NE,49,18.0,25.0,73,0.00,,---,0.02,795.00,VWS V14.01,2013-03-09 16:32:00,
2013-03-09 11:37:00,38.8,31.2,30.22,NE,48,17.0,25.0,74,0.00,,---,0.02,798.00,VWS V14.01,2013-03-09 16:37:00,
2013-03-09 11:42:00,39.1,32.2,30.22,NNE,12,21.0,25.0,76,0.00,,---,0.02,798.00,VWS V14.01,2013-03-09 16:42:00,
2013-03-09 11:45:00,38.8,31.6,30.22,NNE,16,17.0,26.0,75,0.00,,,0.02,796.00,VWS V14.01,2013-03-09 16:45:00,
2013-03-09 11:47:00,38.6,31.4,30.22,NNE,30,13.0,23.0,75,0.00,,---,0.02,798.00,VWS V14.01,2013-03-09 16:47:00,
2013-03-09 11:52:00,38.6,31.7,30.22,NE,48,27.0,27.0,76,0.00,,---,0.02,798.00,VWS V14.01,2013-03-09 16:52:00,
2013-03-09 11:57:00,38.7,31.8,30.23,North,355,16.0,27.0,76,0.00,,---,0.02,795.00,VWS V14.01,2013-03-09 16:57:00,
2013-03-09 12:00:00,38.7,31.8,30.23,NNW,344,8.0,27.0,76,0.00,,,0.02,798.00,VWS V14.01,2013-03-09 17:00:00,
2013-03-09 12:02:00,38.8,31.9,30.23,NNE,12,14.0,21.0,76,0.00,,---,0.02,810.00,VWS V14.01,2013-03-09 17:02:00,
2013-03-09 12:07:00,38.9,31.7,30.23,North,10,14.0,26.0,75,0.00,,---,0.02,849.00,VWS V14.01,2013-03-09 17:07:00,
2013-03-09 12:12:00,39.0,31.4,30.23,NNE,17,16.0,26.0,74,0.00,,---,0.02,814.00,VWS V14.01,2013-03-09 17:12:00,
2013-03-09 12:17:00,39.2,31.6,30.23,North,360,16.0,25.0,74,0.00,,---,0.02,837.00,VWS V14.01,2013-03-09 17:17:00,
2013-03-09 12:22:00,39.2,31.6,30.24,North,11,11.0,25.0,74,0.00,,---,0.02,904.00,VWS V14.01,2013-03-09 17:22:00,
2013-03-09 12:27:00,38.8,31.2,30.24,North,11,16.0,25.0,74,0.00,,---,0.02,904.00,VWS V14.01,2013-03-09 17:27:00,
2013-03-09 12:32:00,38.6,31.0,30.24,North,5,9.0,23.0,74,0.00,,---,0.02,805.00,VWS V14.01,2013-03-09 17:32:00,
2013-03-09 12:37:00,39.0,31.4,30.23,NNW,338,12.0,24.0,74,0.00,,---,0.02,983.00,VWS V14.01,2013-03-09 17:37:00,
2013-03-09 12:42:00,39.1,31.5,30.23,NNW,333,15.0,25.0,74,0.00,,---,0.02,926.00,VWS V14.01,2013-03-09 17:42:00,
2013-03-09 12:47:00,39.0,31.1,30.23,NNW,336,12.0,22.0,73,0.00,,---,0.02,886.00,VWS V14.01,2013-03-09 17:47:00,
2013-03-09 12:52:00,39.0,31.4,30.23,North,360,21.0,23.0,74,0.00,,---,0.02,823.00,VWS V14.01,2013-03-09 17:52:00,
2013-03-09 12:57:00,38.9,31.0,30.24,North,5,22.0,27.0,73,0.00,,---,0.02,882.00,VWS V14.01,2013-03-09 17:57:00,
2013-03-09 13:02:00,38.7,31.1,30.23,NE,36,12.0,20.0,74,0.00,,---,0.02,793.00,VWS V14.01,2013-03-09 18:02:00,
2013-03-09 13:07:00,38.6,31.0,30.23,NNE,16,10.0,24.0,74,0.00,,---,0.02,784.00,VWS V14.01,2013-03-09 18:07:00,
2013-03-09 13:12:00,38.8,31.6,30.24,NNE,13,13.0,24.0,75,0.00,,---,0.02,788.00,VWS V14.01,2013-03-09 18:12:00,
2013-03-09 13:17:00,39.1,32.2,30.24,North,5,13.0,17.0,76,0.00,,---,0.02,863.00,VWS V14.01,2013-03-09 18:17:00,
2013-03-09 13:22:00,39.1,31.9,30.24,North,5,19.0,20.0,75,0.00,,---,0.02,536.00,VWS V14.01,2013-03-09 18:22:00,
2013-03-09 13:27:00,38.6,31.7,30.24,North,355,14.0,21.0,76,0.00,,---,0.02,383.00,VWS V14.01,2013-03-09 18:27:00,
2013-03-09 13:30:00,38.4,31.8,30.24,NNE,19,17.0,21.0,77,0.00,,,0.02,329.00,VWS V14.01,2013-03-09 18:30:00,
2013-03-09 13:32:00,38.4,31.8,30.24,NNE,31,11.0,18.0,77,0.00,,---,0.02,350.00,VWS V14.01,2013-03-09 18:32:00,
2013-03-09 13:38:00,38.5,31.9,30.24,NNE,32,11.0,18.0,77,0.00,,---,0.02,327.00,VWS V14.01,2013-03-09 18:38:00,
2013-03-09 13:43:00,38.0,31.1,30.24,NNE,26,16.0,23.0,76,0.00,,---,0.02,299.00,VWS V14.01,2013-03-09 18:43:00,
2013-03-09 13:45:00,38.0,31.1,30.24,NNE,20,18.0,23.0,76,0.00,,,0.02,712.00,VWS V14.01,2013-03-09 18:45:00,
2013-03-09 13:48:00,38.1,31.2,30.23,NNE,32,18.0,25.0,76,0.00,,---,0.02,701.00,VWS V14.01,2013-03-09 18:48:00,
2013-03-09 13:53:00,38.3,31.4,30.24,North,355,9.0,25.0,76,0.00,,---,0.02,779.00,VWS V14.01,2013-03-09 18:53:00,
2013-03-09 13:58:00,38.7,31.8,30.23,North,5,11.0,25.0,76,0.00,,---,0.02,297.00,VWS V14.01,2013-03-09 18:58:00,
2013-03-09 14:00:00,38.4,31.5,30.24,NNE,28,12.0,25.0,76,0.00,,,0.02,397.00,VWS V14.01,2013-03-09 19:00:00,
2013-03-09 14:03:00,38.3,31.7,30.24,North,355,14.0,15.0,77,0.00,,---,0.02,295.00,VWS V14.01,2013-03-09 19:03:00,
2013-03-09 14:08:00,37.8,31.2,30.24,NNE,21,18.0,23.0,77,0.00,,---,0.02,255.00,VWS V14.01,2013-03-09 19:08:00,
2013-03-09 14:13:00,37.8,31.2,30.24,NE,55,16.0,24.0,77,0.00,,---,0.02,635.00,VWS V14.01,2013-03-09 19:13:00,
2013-03-09 14:15:00,38.0,31.4,30.24,NNE,15,11.0,24.0,77,0.00,,,0.02,664.00,VWS V14.01,2013-03-09 19:15:00,
2013-03-09 14:18:00,38.2,31.3,30.24,NNE,13,14.0,20.0,76,0.00,,---,0.02,610.00,VWS V14.01,2013-03-09 19:18:00,
2013-03-09 14:23:00,38.7,31.8,30.24,NNE,22,8.0,20.0,76,0.00,,---,0.02,599.00,VWS V14.01,2013-03-09 19:23:00,
2013-03-09 14:28:00,38.3,31.1,30.24,NNE,26,14.0,26.0,75,0.00,,---,0.02,582.00,VWS V14.01,2013-03-09 19:28:00,
2013-03-09 14:30:00,38.4,31.2,30.24,NNE,32,14.0,26.0,75,0.00,,,0.02,577.00,VWS V14.01,2013-03-09 19:30:00,
2013-03-09 14:33:00,38.4,31.2,30.24,NNE,15,19.0,19.0,75,0.00,,---,0.02,573.00,VWS V14.01,2013-03-09 19:33:00,
2013-03-09 14:38:00,38.7,31.5,30.24,North,360,19.0,19.0,75,0.00,,---,0.02,557.00,VWS V14.01,2013-03-09 19:38:00,
2013-03-09 14:43:00,38.8,31.9,30.24,NNE,19,14.0,21.0,76,0.00,,---,0.02,543.00,VWS V14.01,2013-03-09 19:43:00,
2013-03-09 14:48:00,38.8,31.9,30.24,NE,51,16.0,21.0,76,0.00,,---,0.02,529.00,VWS V14.01,2013-03-09 19:48:00,
2013-03-09 14:53:00,38.6,31.7,30.24,NE,36,14.0,21.0,76,0.00,,---,0.02,515.00,VWS V14.01,2013-03-09 19:53:00,
2013-03-09 14:58:00,38.9,31.3,30.24,NE,41,11.0,21.0,74,0.00,,---,0.02,499.00,VWS V14.01,2013-03-09 19:58:00,
2013-03-09 15:00:00,39.2,31.3,30.24,North,355,9.0,21.0,73,0.00,,,0.02,492.00,VWS V14.01,2013-03-09 20:00:00,
2013-03-09 15:03:00,39.5,31.6,30.24,NE,36,8.0,12.0,73,0.00,,---,0.02,489.00,VWS V14.01,2013-03-09 20:03:00,
2013-03-09 15:08:00,39.8,31.9,30.24,NNE,31,5.0,13.0,73,0.00,,---,0.02,471.00,VWS V14.01,2013-03-09 20:08:00,
2013-03-09 15:13:00,39.4,31.5,30.24,NNE,25,14.0,18.0,73,0.00,,---,0.02,452.00,VWS V14.01,2013-03-09 20:13:00,
2013-03-09 15:15:00,39.1,31.5,30.24,NNW,348,8.0,18.0,74,0.00,,,0.02,448.00,VWS V14.01,2013-03-09 20:15:00,
2013-03-09 15:18:00,39.1,31.2,30.24,NE,39,10.0,16.0,73,0.00,,---,0.02,441.00,VWS V14.01,2013-03-09 20:18:00,
2013-03-09 15:23:00,39.1,31.2,30.24,NNW,340,14.0,17.0,73,0.00,,---,0.02,424.00,VWS V14.01,2013-03-09 20:23:00,
2013-03-09 15:28:00,39.5,31.2,30.24,North,360,9.0,17.0,72,0.00,,---,0.02,408.00,VWS V14.01,2013-03-09 20:28:00,
2013-03-09 15:30:00,39.6,31.7,30.24,NNE,14,9.0,17.0,73,0.00,,,0.02,399.00,VWS V14.01,2013-03-09 20:30:00,
2013-03-09 15:33:00,39.7,32.1,30.24,North,355,13.0,13.0,74,0.00,,---,0.02,392.00,VWS V14.01,2013-03-09 20:33:00,
2013-03-09 15:38:00,39.3,31.7,30.24,NE,40,10.0,21.0,74,0.00,,---,0.02,374.00,VWS V14.01,2013-03-09 20:38:00,
2013-03-09 15:43:00,39.1,31.9,30.24,NE,54,19.0,21.0,75,0.00,,---,0.02,359.00,VWS V14.01,2013-03-09 20:43:00,
2013-03-09 15:45:00,39.0,31.4,30.24,NNE,22,14.0,21.0,74,0.00,,,0.02,346.00,VWS V14.01,2013-03-09 20:45:00,
2013-03-09 15:48:00,39.0,31.4,30.24,NNE,22,12.0,18.0,74,0.00,,---,0.02,343.00,VWS V14.01,2013-03-09 20:48:00,
2013-03-09 15:53:00,38.9,31.3,30.24,North,5,21.0,21.0,74,0.00,,---,0.02,323.00,VWS V14.01,2013-03-09 20:53:00,
2013-03-09 15:58:00,38.8,30.9,30.24,NNE,29,10.0,21.0,73,0.00,,---,0.02,306.00,VWS V14.01,2013-03-09 20:58:00,
2013-03-09 16:00:00,38.7,30.8,30.24,NE,40,10.0,22.0,73,0.00,,,0.02,301.00,VWS V14.01,2013-03-09 21:00:00,
2013-03-09 16:03:00,38.7,31.1,30.24,North,5,10.0,18.0,74,0.00,,---,0.02,290.00,VWS V14.01,2013-03-09 21:03:00,
2013-03-09 16:08:00,38.7,31.1,30.24,NNW,338,8.0,18.0,74,0.00,,---,0.02,274.00,VWS V14.01,2013-03-09 21:08:00,
2013-03-09 16:13:00,38.7,31.1,30.25,North,9,11.0,20.0,74,0.00,,---,0.02,257.00,VWS V14.01,2013-03-09 21:13:00,
2013-03-09 16:18:00,38.9,31.0,30.25,NNE,30,4.0,13.0,73,0.00,,---,0.02,230.00,VWS V14.01,2013-03-09 21:18:00,
2013-03-09 16:23:00,38.8,30.6,30.25,NNE,15,9.0,17.0,72,0.00,,---,0.02,207.00,VWS V14.01,2013-03-09 21:23:00,
2013-03-09 16:28:00,38.8,30.9,30.25,NNE,28,14.0,17.0,73,0.00,,---,0.02,186.00,VWS V14.01,2013-03-09 21:28:00,
2013-03-09 16:30:00,38.7,30.8,30.25,NE,43,10.0,18.0,73,0.00,,,0.02,174.00,VWS V14.01,2013-03-09 21:30:00,
2013-03-09 16:33:00,38.6,31.0,30.25,NNE,24,10.0,14.0,74,0.00,,---,0.02,163.00,VWS V14.01,2013-03-09 21:33:00,
2013-03-09 16:38:00,38.6,31.4,30.25,North,360,6.0,14.0,75,0.00,,---,0.02,142.00,VWS V14.01,2013-03-09 21:38:00,
2013-03-09 16:43:00,38.4,30.9,30.26,NNE,16,5.0,17.0,74,0.00,,---,0.02,116.00,VWS V14.01,2013-03-09 21:43:00,
2013-03-09 16:45:00,38.3,30.8,30.26,NNE,33,9.0,17.0,74,0.00,,,0.02,105.00,VWS V14.01,2013-03-09 21:45:00,
2013-03-09 16:48:00,38.2,30.7,30.26,North,355,8.0,16.0,74,0.00,,---,0.02,98.00,VWS V14.01,2013-03-09 21:48:00,
2013-03-09 16:53:00,38.1,30.6,30.26,North,5,12.0,18.0,74,0.00,,---,0.02,81.00,VWS V14.01,2013-03-09 21:53:00,
2013-03-09 16:58:00,38.0,30.8,30.26,NE,42,16.0,18.0,75,0.00,,---,0.02,70.00,VWS V14.01,2013-03-09 21:58:00,
2013-03-09 17:03:00,37.9,30.7,30.27,NE,42,11.0,13.0,75,0.00,,---,0.02,49.00,VWS V14.01,2013-03-09 22:03:00,
2013-03-09 17:08:00,37.8,30.6,30.27,NNE,25,9.0,15.0,75,0.00,,---,0.02,33.00,VWS V14.01,2013-03-09 22:08:00,
2013-03-09 17:13:00,37.6,30.7,30.27,ENE,59,7.0,16.0,76,0.00,,---,0.02,28.00,VWS V14.01,2013-03-09 22:13:00,
2013-03-09 17:15:00,37.5,30.6,30.27,NNE,12,9.0,16.0,76,0.00,,,0.02,25.00,VWS V14.01,2013-03-09 22:15:00,
2013-03-09 17:18:00,37.5,31.0,30.27,NE,38,14.0,18.0,77,0.00,,---,0.02,23.00,VWS V14.01,2013-03-09 22:18:00,
2013-03-09 17:23:00,37.3,30.8,30.28,North,5,7.0,18.0,77,0.00,,---,0.02,21.00,VWS V14.01,2013-03-09 22:23:00,
2013-03-09 17:28:00,37.1,30.9,30.28,North,5,12.0,18.0,78,0.00,,---,0.02,16.00,VWS V14.01,2013-03-09 22:28:00,
2013-03-09 17:30:00,37.0,30.5,30.28,NNW,342,6.0,18.0,77,0.00,,,0.02,14.00,VWS V14.01,2013-03-09 22:30:00,
2013-03-09 17:33:00,37.0,30.5,30.28,NNE,23,9.0,12.0,77,0.00,,---,0.02,14.00,VWS V14.01,2013-03-09 22:33:00,
2013-03-09 17:38:00,36.8,30.3,30.28,North,355,12.0,18.0,77,0.00,,---,0.02,9.00,VWS V14.01,2013-03-09 22:38:00,
2013-03-09 17:43:00,36.6,30.4,30.29,North,11,9.0,18.0,78,0.00,,---,0.02,5.00,VWS V14.01,2013-03-09 22:43:00,
2013-03-09 17:45:00,36.6,30.4,30.29,NNE,17,8.0,18.0,78,0.00,,,0.02,5.00,VWS V14.01,2013-03-09 22:45:00,
2013-03-09 17:48:00,36.5,30.6,30.29,NE,34,12.0,15.0,79,0.00,,---,0.02,0.00,VWS V14.01,2013-03-09 22:48:00,
2013-03-09 17:53:00,36.4,30.5,30.29,NNE,16,6.0,16.0,79,0.00,,---,0.02,0.00,VWS V14.01,2013-03-09 22:53:00,
2013-03-09 17:59:00,36.3,30.4,30.30,NNW,346,8.0,16.0,79,0.00,,---,0.02,0.00,VWS V14.01,2013-03-09 22:59:00,
2013-03-09 18:04:00,36.2,30.3,30.30,North,355,10.0,10.0,79,0.00,,---,0.02,0.00,VWS V14.01,2013-03-09 23:04:00,
2013-03-09 18:09:00,36.1,30.5,30.30,North,355,5.0,11.0,80,0.00,,---,0.02,0.00,VWS V14.01,2013-03-09 23:09:00,
2013-03-09 18:14:00,36.0,30.4,30.30,NE,40,3.0,11.0,80,0.00,,---,0.02,0.00,VWS V14.01,2013-03-09 23:14:00,
2013-03-09 18:15:00,35.9,30.6,30.30,NNE,31,7.0,11.0,81,0.00,,,0.02,0.00,VWS V14.01,2013-03-09 23:15:00,
2013-03-09 18:19:00,35.8,30.5,30.31,NNW,338,8.0,10.0,81,0.00,,---,0.02,0.00,VWS V14.01,2013-03-09 23:19:00,
2013-03-09 18:24:00,35.7,30.5,30.31,North,360,7.0,10.0,81,0.00,,---,0.02,0.00,VWS V14.01,2013-03-09 23:24:00,
2013-03-09 18:29:00,35.7,30.8,30.31,North,11,6.0,10.0,82,0.00,,---,0.02,0.00,VWS V14.01,2013-03-09 23:29:00,
2013-03-09 18:34:00,35.6,30.7,30.31,North,360,6.0,7.0,82,0.00,,---,0.02,0.00,VWS V14.01,2013-03-09 23:34:00,
2013-03-09 18:39:00,35.5,30.9,30.31,NNE,22,8.0,10.0,83,0.00,,---,0.02,0.00,VWS V14.01,2013-03-09 23:39:00,
2013-03-09 18:44:00,35.4,30.8,30.31,NNE,12,5.0,10.0,83,0.00,,---,0.02,0.00,VWS V14.01,2013-03-09 23:44:00,
2013-03-09 18:49:00,35.3,30.7,30.32,North,355,7.0,8.0,83,0.00,,---,0.02,0.00,VWS V14.01,2013-03-09 23:49:00,
2013-03-09 18:54:00,35.2,30.9,30.32,North,360,3.0,9.0,84,0.00,,---,0.02,0.00,VWS V14.01,2013-03-09 23:54:00,
2013-03-09 18:59:00,35.1,30.8,30.32,North,11,3.0,9.0,84,0.00,,---,0.02,0.00,VWS V14.01,2013-03-09 23:59:00,
2013-03-09 19:04:00,35.0,30.7,30.32,NNE,13,4.0,10.0,84,0.00,,---,0.02,0.00,VWS V14.01,2013-03-10 00:04:00,
2013-03-09 19:09:00,35.0,31.0,30.31,NE,46,8.0,10.0,85,0.00,,---,0.02,0.00,VWS V14.01,2013-03-10 00:09:00,
2013-03-09 19:14:00,34.9,30.9,30.31,NNE,15,3.0,10.0,85,0.00,,---,0.02,0.00,VWS V14.01,2013-03-10 00:14:00,
2013-03-09 19:15:00,34.9,30.9,30.31,NNE,28,4.0,10.0,85,0.00,,,0.02,0.00,VWS V14.01,2013-03-10 00:15:00,
2013-03-09 19:19:00,34.9,30.9,30.31,North,355,5.0,7.0,85,0.00,,---,0.02,0.00,VWS V14.01,2013-03-10 00:19:00,
2013-03-09 19:24:00,34.8,30.8,30.31,NNE,20,3.0,9.0,85,0.00,,---,0.02,0.00,VWS V14.01,2013-03-10 00:24:00,
2013-03-09 19:29:00,34.8,31.0,30.31,NNW,346,6.0,9.0,86,0.00,,---,0.02,0.00,VWS V14.01,2013-03-10 00:29:00,
2013-03-09 19:34:00,34.8,31.0,30.32,North,360,6.0,8.0,86,0.00,,---,0.02,0.00,VWS V14.01,2013-03-10 00:34:00,
2013-03-09 19:39:00,34.8,31.0,30.31,North,5,6.0,8.0,86,0.00,,---,0.02,0.00,VWS V14.01,2013-03-10 00:39:00,
2013-03-09 19:44:00,34.8,31.0,30.32,NNE,14,6.0,10.0,86,0.00,,---,0.02,0.00,VWS V14.01,2013-03-10 00:44:00,
2013-03-09 19:49:00,34.8,31.3,30.31,North,5,4.0,8.0,87,0.00,,---,0.02,0.00,VWS V14.01,2013-03-10 00:49:00,
2013-03-09 19:54:00,34.8,31.3,30.32,NNE,18,4.0,9.0,87,0.00,,---,0.02,0.00,VWS V14.01,2013-03-10 00:54:00,
2013-03-09 19:59:00,34.8,31.3,30.32,North,11,4.0,9.0,87,0.00,,---,0.02,0.00,VWS V14.01,2013-03-10 00:59:00,
2013-03-09 20:00:00,34.7,31.2,30.32,NNE,14,5.0,9.0,87,0.00,,,0.02,0.00,VWS V14.01,2013-03-10 01:00:00,
2013-03-09 20:04:00,34.7,31.2,30.32,NE,40,6.0,8.0,87,0.00,,---,0.02,0.00,VWS V14.01,2013-03-10 01:04:00,
2013-03-09 20:09:00,34.7,31.2,30.32,NNE,23,6.0,8.0,87,0.00,,---,0.02,0.00,VWS V14.01,2013-03-10 01:09:00,
2013-03-09 20:14:00,34.7,31.5,30.32,North,360,7.0,8.0,88,0.00,,---,0.02,0.00,VWS V14.01,2013-03-10 01:14:00,
2013-03-09 20:15:00,34.7,31.5,30.32,North,360,7.0,8.0,88,0.00,,,0.02,0.00,VWS V14.01,2013-03-10 01:15:00,
2013-03-09 20:19:00,34.7,31.5,30.32,North,355,5.0,8.0,88,0.00,,---,0.02,0.00,VWS V14.01,2013-03-10 01:19:00,
2013-03-09 20:24:00,34.6,31.4,30.32,NE,40,5.0,8.0,88,0.00,,---,0.02,0.00,VWS V14.01,2013-03-10 01:24:00,
2013-03-09 20:29:00,34.6,31.4,30.32,NNW,346,4.0,8.0,88,0.00,,---,0.02,0.00,VWS V14.01,2013-03-10 01:29:00,
2013-03-09 20:30:00,34.5,31.3,30.32,NNE,15,6.0,8.0,88,0.00,,,0.02,0.00,VWS V14.01,2013-03-10 01:30:00,
2013-03-09 20:34:00,34.5,31.3,30.33,North,11,3.0,6.0,88,0.00,,---,0.02,0.00,VWS V14.01,2013-03-10 01:34:00,
2013-03-09 20:39:00,34.4,31.2,30.32,NNW,348,3.0,6.0,88,0.00,,---,0.02,0.00,VWS V14.01,2013-03-10 01:39:00,
2013-03-09 20:44:00,34.4,31.2,30.32,NNE,13,2.0,8.0,88,0.00,,---,0.02,0.00,VWS V14.01,2013-03-10 01:44:00,
2013-03-09 20:45:00,34.4,31.2,30.32,North,360,3.0,8.0,88,0.00,,,0.02,0.00,VWS V14.01,2013-03-10 01:45:00,
2013-03-09 20:49:00,34.4,31.2,30.32,NNE,29,3.0,5.0,88,0.00,,---,0.02,0.00,VWS V14.01,2013-03-10 01:49:00,
2013-03-09 20:54:00,34.3,31.1,30.33,North,360,3.0,7.0,88,0.00,,---,0.02,0.00,VWS V14.01,2013-03-10 01:54:00,
2013-03-09 20:59:00,34.2,31.3,30.33,North,360,2.0,7.0,89,0.00,,---,0.02,0.00,VWS V14.01,2013-03-10 01:59:00,
2013-03-09 21:04:00,34.1,31.2,30.33,North,355,3.0,5.0,89,0.00,,---,0.02,0.00,VWS V14.01,2013-03-10 02:04:00,
2013-03-09 21:09:00,34.0,31.1,30.33,NNW,339,3.0,5.0,89,0.00,,---,0.02,0.00,VWS V14.01,2013-03-10 02:09:00,
2013-03-09 21:14:00,33.9,31.0,30.33,NNW,337,3.0,5.0,89,0.00,,---,0.02,0.00,VWS V14.01,2013-03-10 02:14:00,
2013-03-09 21:19:00,33.6,30.7,30.33,NNW,333,3.0,4.0,89,0.00,,---,0.02,0.00,VWS V14.01,2013-03-10 02:19:00,
2013-03-09 21:24:00,33.4,30.5,30.33,NNW,342,2.0,5.0,89,0.00,,---,0.02,0.00,VWS V14.01,2013-03-10 02:24:00,
2013-03-09 21:29:00,33.2,30.3,30.33,NNW,346,3.0,5.0,89,0.00,,---,0.02,0.00,VWS V14.01,2013-03-10 02:29:00,
2013-03-09 21:30:00,33.1,30.5,30.33,NNW,335,2.0,5.0,90,0.00,,,0.02,0.00,VWS V14.01,2013-03-10 02:30:00,
2013-03-09 21:34:00,33.0,30.4,30.33,NNW,337,4.0,4.0,90,0.00,,---,0.02,0.00,VWS V14.01,2013-03-10 02:34:00,
2013-03-09 21:39:00,32.6,30.0,30.33,NNW,331,4.0,5.0,90,0.00,,---,0.02,0.00,VWS V14.01,2013-03-10 02:39:00,
2013-03-09 21:44:00,32.4,29.8,30.33,NNW,340,2.0,5.0,90,0.00,,---,0.02,0.00,VWS V14.01,2013-03-10 02:44:00,
2013-03-09 21:45:00,32.3,29.7,30.33,NNW,336,3.0,5.0,90,0.00,,,0.02,0.00,VWS V14.01,2013-03-10 02:45:00,
2013-03-09 21:49:00,32.1,29.5,30.34,NNW,327,4.0,4.0,90,0.00,,---,0.02,0.00,VWS V14.01,2013-03-10 02:49:00,
2013-03-09 21:54:00,31.9,29.6,30.34,NW,315,5.0,5.0,91,0.00,,---,0.02,0.00,VWS V14.01,2013-03-10 02:54:00,
2013-03-09 21:59:00,31.8,29.8,30.34,NW,321,5.0,7.0,92,0.00,,---,0.02,0.00,VWS V14.01,2013-03-10 02:59:00,
2013-03-09 22:00:00,31.8,29.5,30.34,NNW,327,5.0,7.0,91,0.00,,,0.02,0.00,VWS V14.01,2013-03-10 03:00:00,
2013-03-09 22:04:00,31.7,29.6,30.34,NW,315,5.0,5.0,92,0.00,,---,0.02,0.00,VWS V14.01,2013-03-10 03:04:00,
2013-03-09 22:09:00,31.7,29.6,30.34,NW,317,4.0,6.0,92,0.00,,---,0.02,0.00,VWS V14.01,2013-03-10 03:09:00,
2013-03-09 22:14:00,31.7,29.6,30.34,NNW,335,4.0,6.0,92,0.00,,---,0.02,0.00,VWS V14.01,2013-03-10 03:14:00,
2013-03-09 22:19:00,31.6,29.5,30.34,NNW,337,3.0,6.0,92,0.00,,---,0.02,0.00,VWS V14.01,2013-03-10 03:19:00,
2013-03-09 22:24:00,31.6,29.5,30.34,NW,321,3.0,7.0,92,0.00,,---,0.02,0.00,VWS V14.01,2013-03-10 03:24:00,
2013-03-09 22:29:00,31.5,29.5,30.34,NW,321,4.0,7.0,92,0.00,,---,0.02,0.00,VWS V14.01,2013-03-10 03:29:00,
2013-03-09 22:30:00,31.5,29.5,30.34,NNW,327,4.0,7.0,92,0.00,,,0.02,0.00,VWS V14.01,2013-03-10 03:30:00,
2013-03-09 22:34:00,31.4,29.6,30.34,NNW,344,4.0,5.0,93,0.00,,---,0.02,0.00,VWS V14.01,2013-03-10 03:34:00,
2013-03-09 22:39:00,31.6,29.8,30.34,NNW,342,3.0,6.0,93,0.00,,---,0.02,0.00,VWS V14.01,2013-03-10 03:39:00,
2013-03-09 22:44:00,31.8,30.0,30.33,NNW,344,5.0,6.0,93,0.00,,---,0.02,0.00,VWS V14.01,2013-03-10 03:44:00,
2013-03-09 22:49:00,32.0,30.2,30.33,NNW,344,2.0,7.0,93,0.00,,---,0.02,0.00,VWS V14.01,2013-03-10 03:49:00,
2013-03-09 22:54:00,32.2,30.4,30.33,NNW,337,3.0,7.0,93,0.00,,---,0.02,0.00,VWS V14.01,2013-03-10 03:54:00,
2013-03-09 22:59:00,32.3,30.5,30.33,NNW,345,2.0,7.0,93,0.00,,---,0.02,0.00,VWS V14.01,2013-03-10 03:59:00,
2013-03-09 23:00:00,32.3,30.5,30.33,North,11,4.0,7.0,93,0.00,,,0.02,0.00,VWS V14.01,2013-03-10 04:00:00,
2013-03-09 23:04:00,32.4,30.6,30.33,NNW,331,4.0,6.0,93,0.00,,---,0.02,0.00,VWS V14.01,2013-03-10 04:04:00,
2013-03-09 23:09:00,32.3,30.2,30.33,NNW,337,7.0,7.0,92,0.00,,---,0.02,0.00,VWS V14.01,2013-03-10 04:09:00,
2013-03-09 23:14:00,32.4,30.3,30.33,NNW,347,3.0,7.0,92,0.00,,---,0.02,0.00,VWS V14.01,2013-03-10 04:14:00,
2013-03-09 23:15:00,32.3,30.5,30.33,NNW,346,3.0,7.0,93,0.00,,,0.02,0.00,VWS V14.01,2013-03-10 04:15:00,
2013-03-09 23:19:00,32.3,30.2,30.33,NNW,342,3.0,7.0,92,0.00,,---,0.02,0.00,VWS V14.01,2013-03-10 04:19:00,
2013-03-09 23:24:00,32.3,30.2,30.34,NNW,340,5.0,7.0,92,0.00,,---,0.02,0.00,VWS V14.01,2013-03-10 04:24:00,
2013-03-09 23:30:00,32.4,30.6,30.33,NNW,343,4.0,7.0,93,0.00,,---,0.02,0.00,VWS V14.01,2013-03-10 04:30:00,
2013-03-09 23:35:00,32.4,30.6,30.33,North,9,6.0,6.0,93,0.00,,---,0.02,0.00,VWS V14.01,2013-03-10 04:35:00,
2013-03-09 23:40:00,32.4,30.6,30.33,North,5,5.0,8.0,93,0.00,,---,0.02,0.00,VWS V14.01,2013-03-10 04:40:00,
2013-03-09 23:45:00,32.3,30.2,30.33,NNE,16,3.0,8.0,92,0.00,,---,0.02,0.00,VWS V14.01,2013-03-10 04:45:00,
2013-03-09 23:50:00,32.2,30.1,30.33,North,360,5.0,8.0,92,0.00,,---,0.02,0.00,VWS V14.01,2013-03-10 04:50:00,
2013-03-09 23:55:00,32.1,30.0,30.33,North,5,6.0,8.0,92,0.00,,---,0.02,0.00,VWS V14.01,2013-03-10 04:55:00,